Washington, IA

6:05 AM CST on November 24, 2017 (GMT -0600)
Washington Municipal

Weather History for KAWG - December, 2012

Change the Weather History Date:

Wednesday, December 12, 2012

  Actual Average Record
Temperature  
Mean Temperature 36 °F -  
Max Temperature 48 °F 35 °F 57 °F (2015)
Min Temperature 24 °F 21 °F -9 °F (2000)
Degree Days  
Heating Degree Days 29    
Moisture  
Dew Point 20 °F    
Average Humidity 56    
Maximum Humidity 80    
Minimum Humidity 32    
Precipitation  
Precipitation 0.00 in - - ()
Sea Level Pressure  
Sea Level Pressure 30.15 in    
Wind  
Wind Speed 11 mph (South)    
Max Wind Speed 21 mph    
Max Gust Speed 26 mph    
Visibility 10 miles    
Events      
Averages and records for this station are not official NWS values.
T = Trace of Precipitation, MM = Missing Value Source: NWS Daily Summary

Daily Weather History Graph

Daily Weather History Graph

Search for Another Location

Airport or City:

Trip Planner

Search our weather history database for the weather conditions in past years. The results will help you decide how hot, cold, wet, or windy it might be!

Date:

Astronomy

Dec. 12, 2012 Rise Set
Actual Time 7:23 AM CST 4:37 PM CST
Civil Twilight 6:52 AM CST 5:09 PM CST
Nautical Twilight 6:17 AM CST 5:43 PM CST
Astronomical Twilight 5:44 AM CST 6:17 PM CST
Moon 6:28 AM CST (12/12) 4:15 PM CST (12/12)
Length of Visible Light 10h 16m
Length of Day
9h 14m
Waning Crescent, 1% of the Moon is Illuminated
Dec 12
Waning Crescent
Dec 13
New
Dec 19
First Quarter
Dec 28
Full
Jan 4
Last Quarter

Hourly Weather History & Observations

Time (CST) Temp. Windchill Dew Point Humidity Pressure Visibility Wind Dir Wind Speed Gust Speed Precip Events Conditions
12:15 AM 28.4 °F 19.1 °F 19.4 °F 69% 30.12 in 10.0 mi SSW 10.4 mph - N/A   Clear
12:35 AM 28.4 °F 19.1 °F 19.4 °F 69% 30.11 in 10.0 mi SSW 10.4 mph - N/A   Clear
12:55 AM 28.4 °F 19.1 °F 19.4 °F 69% 30.11 in 10.0 mi SSW 10.4 mph - N/A   Clear
1:15 AM 28.4 °F 19.7 °F 19.4 °F 69% 30.12 in 10.0 mi SSW 9.2 mph - N/A   Clear
1:35 AM 26.6 °F 17.5 °F 19.4 °F 74% 30.12 in 10.0 mi SSW 9.2 mph - N/A   Clear
1:55 AM 26.6 °F 17.5 °F 19.4 °F 74% 30.12 in 10.0 mi SSW 9.2 mph - N/A   Clear
2:15 AM 24.8 °F 15.3 °F 19.4 °F 80% 30.12 in 10.0 mi SSW 9.2 mph - N/A   Clear
2:35 AM 24.8 °F 16.1 °F 19.4 °F 80% 30.13 in 10.0 mi SSW 8.1 mph - N/A   Clear
2:55 AM 24.8 °F 15.3 °F 19.4 °F 80% 30.13 in 10.0 mi SSW 9.2 mph - N/A   Clear
3:15 AM 24.8 °F 16.1 °F 17.6 °F 74% 30.13 in 10.0 mi SSW 8.1 mph - N/A   Clear
3:35 AM 24.8 °F 16.1 °F 17.6 °F 74% 30.13 in 10.0 mi South 8.1 mph - N/A   Clear
3:55 AM 24.8 °F 16.1 °F 17.6 °F 74% 30.13 in 10.0 mi South 8.1 mph - N/A   Clear
4:15 AM 24.8 °F 15.3 °F 19.4 °F 80% 30.13 in 10.0 mi South 9.2 mph - N/A   Clear
4:35 AM 24.8 °F 16.1 °F 19.4 °F 80% 30.14 in 10.0 mi South 8.1 mph - N/A   Clear
4:55 AM 24.8 °F 15.3 °F 19.4 °F 80% 30.14 in 10.0 mi South 9.2 mph - N/A   Clear
5:15 AM 24.8 °F 15.3 °F 17.6 °F 74% 30.14 in 10.0 mi South 9.2 mph - N/A   Clear
5:35 AM 24.8 °F 15.3 °F 17.6 °F 74% 30.15 in 10.0 mi South 9.2 mph - N/A   Clear
5:55 AM 24.8 °F 14.6 °F 17.6 °F 74% 30.15 in 10.0 mi South 10.4 mph - N/A   Clear
6:15 AM 26.6 °F 16.8 °F 19.4 °F 74% 30.16 in 10.0 mi South 10.4 mph - N/A   Clear
6:35 AM 26.6 °F 17.5 °F 17.6 °F 69% 30.16 in 10.0 mi South 9.2 mph - N/A   Clear
7:15 AM 24.8 °F 14.6 °F 17.6 °F 74% 30.17 in 10.0 mi South 10.4 mph - N/A   Clear
7:35 AM 26.6 °F 16.8 °F 19.4 °F 74% 30.17 in 10.0 mi South 10.4 mph - N/A   Clear
7:55 AM 26.6 °F 17.5 °F 19.4 °F 74% 30.17 in 10.0 mi South 9.2 mph - N/A   Clear
8:15 AM 28.4 °F 18.5 °F 19.4 °F 69% 30.18 in 10.0 mi South 11.5 mph - N/A   Clear
8:35 AM 30.2 °F 20.8 °F 19.4 °F 64% 30.18 in 10.0 mi South 11.5 mph - N/A   Clear
8:55 AM 30.2 °F 20.8 °F 19.4 °F 64% 30.19 in 10.0 mi South 11.5 mph - N/A   Clear
9:15 AM 33.8 °F 25.3 °F 21.2 °F 60% 30.19 in 10.0 mi South 11.5 mph - N/A   Clear
9:35 AM 35.6 °F 28.0 °F 21.2 °F 56% 30.20 in 10.0 mi South 10.4 mph - N/A   Clear
9:55 AM 35.6 °F 27.5 °F 21.2 °F 56% 30.20 in 10.0 mi South 11.5 mph - N/A   Clear
10:15 AM 39.2 °F 30.8 °F 21.2 °F 49% 30.20 in 10.0 mi South 15.0 mph - N/A   Clear
10:35 AM 39.2 °F 31.6 °F 21.2 °F 49% 30.20 in 10.0 mi South 12.7 mph 19.6 mph N/A   Clear
11:15 AM 42.8 °F 35.4 °F 21.2 °F 42% 30.19 in 10.0 mi South 15.0 mph - N/A   Clear
11:35 AM 44.6 °F 37.2 °F 19.4 °F 37% 30.19 in 10.0 mi SSW 17.3 mph - N/A   Clear
11:55 AM 44.6 °F 37.8 °F 21.2 °F 39% 30.18 in 10.0 mi SSW 15.0 mph 20.7 mph N/A   Clear
12:15 PM 46.4 °F 39.8 °F 21.2 °F 37% 30.17 in 10.0 mi SSW 16.1 mph - N/A   Clear
12:35 PM 46.4 °F 39.8 °F 21.2 °F 37% 30.17 in 10.0 mi SSW 16.1 mph - N/A   Clear
12:55 PM 48.2 °F - 21.2 °F 34% 30.16 in 10.0 mi SSW 16.1 mph - N/A   Clear
1:15 PM 48.2 °F - 21.2 °F 34% 30.15 in 10.0 mi South 17.3 mph 20.7 mph N/A   Clear
1:55 PM 48.2 °F - 21.2 °F 34% 30.14 in 10.0 mi South 17.3 mph 21.9 mph N/A   Clear
2:15 PM 48.2 °F - 21.2 °F 34% 30.13 in 10.0 mi South 19.6 mph 23.0 mph N/A   Clear
2:35 PM 48.2 °F - 19.4 °F 32% 30.13 in 10.0 mi South 20.7 mph - N/A   Clear
2:55 PM 48.2 °F - 19.4 °F 32% 30.13 in 10.0 mi SSW 19.6 mph 26.5 mph N/A   Clear
3:15 PM 46.4 °F 39.5 °F 21.2 °F 37% 30.12 in 10.0 mi South 17.3 mph - N/A   Clear
3:35 PM 46.4 °F 39.5 °F 19.4 °F 34% 30.12 in 10.0 mi South 17.3 mph 26.5 mph N/A   Clear
3:55 PM 46.4 °F 40.1 °F 19.4 °F 34% 30.13 in 10.0 mi South 15.0 mph 19.6 mph N/A   Clear
4:15 PM 44.6 °F 38.4 °F 19.4 °F 37% 30.13 in 10.0 mi South 12.7 mph 20.7 mph N/A   Clear
4:35 PM 42.8 °F 36.2 °F 19.4 °F 39% 30.12 in 10.0 mi South 12.7 mph - N/A   Clear
4:55 PM 41.0 °F 34.3 °F 21.2 °F 45% 30.12 in 10.0 mi South 11.5 mph - N/A   Clear
5:15 PM 39.2 °F 32.5 °F 21.2 °F 49% 30.13 in 10.0 mi South 10.4 mph - N/A   Clear
5:35 PM 39.2 °F 31.6 °F 21.2 °F 49% 30.13 in 10.0 mi South 12.7 mph - N/A   Clear
5:55 PM 39.2 °F 31.6 °F 21.2 °F 49% 30.13 in 10.0 mi South 12.7 mph - N/A   Clear
6:35 PM 39.2 °F 30.5 °F 21.2 °F 49% 30.12 in 10.0 mi South 16.1 mph - N/A   Clear
6:55 PM 39.2 °F 30.8 °F 19.4 °F 45% 30.13 in 10.0 mi South 15.0 mph - N/A   Clear
7:15 PM 37.4 °F 28.5 °F 19.4 °F 48% 30.13 in 10.0 mi South 15.0 mph - N/A   Clear
7:35 PM 37.4 °F 29.3 °F 19.4 °F 48% 30.14 in 10.0 mi South 12.7 mph - N/A   Clear
7:55 PM 37.4 °F 28.9 °F 19.4 °F 48% 30.14 in 10.0 mi South 13.8 mph - N/A   Clear
8:15 PM 37.4 °F 29.3 °F 19.4 °F 48% 30.14 in 10.0 mi South 12.7 mph - N/A   Clear
8:35 PM 35.6 °F 27.1 °F 19.4 °F 52% 30.15 in 10.0 mi South 12.7 mph - N/A   Clear
8:55 PM 35.6 °F 27.5 °F 19.4 °F 52% 30.15 in 10.0 mi South 11.5 mph - N/A   Clear
9:15 PM 35.6 °F 27.5 °F 19.4 °F 52% 30.16 in 10.0 mi South 11.5 mph - N/A   Clear
9:35 PM 35.6 °F 28.0 °F 19.4 °F 52% 30.16 in 10.0 mi South 10.4 mph - N/A   Clear
9:55 PM 35.6 °F 27.5 °F 19.4 °F 52% 30.17 in 10.0 mi South 11.5 mph - N/A   Clear
10:15 PM 35.6 °F 27.1 °F 19.4 °F 52% 30.17 in 10.0 mi South 12.7 mph - N/A   Clear
10:35 PM 35.6 °F 27.5 °F 19.4 °F 52% 30.17 in 10.0 mi South 11.5 mph - N/A   Clear
10:55 PM 35.6 °F 26.6 °F 19.4 °F 52% 30.16 in 10.0 mi South 13.8 mph - N/A   Clear
11:15 PM 35.6 °F 26.6 °F 19.4 °F 52% 30.17 in 10.0 mi South 13.8 mph - N/A   Clear
11:35 PM 35.6 °F 27.1 °F 19.4 °F 52% 30.18 in 10.0 mi South 12.7 mph - N/A   Clear
11:55 PM 35.6 °F 27.1 °F 19.4 °F 52% 30.17 in 10.0 mi South 12.7 mph - N/A   Clear